Location: Downe
(51.3167°N, 0.0500°E)
Time: 17:46:49
(UTC+00:00)

Cosmos 1898 Rocket - Pass Details

Date: 17 November 2019
Orbit: 753 x 785 km, 74.0° (Epoch: 06 December)

Event Time Altitude Azimuth Distance (km) Brightness Sun altitude
Exits shadow 05:21:37 15° 224° (SW) 1,963 5.3 -18.2°
Maximum altitude 05:25:51 56° 300° (WNW) 917 3.5 -17.5°
Drops below altitude 10° 05:31:04 10° 19° (NNE) 2,338 6.1 -16.7°
Sets 05:33:32 0° 23° (NNE) 3,274 6.9 -16.4°
